Temperature
23 22 22 22 21 21 21 20 20 20 19 19 19 18 18 18 18 18 18 18 18 18 18 17 17 17 17 17 17 17 17 17 17 17 17 17 17 17 17 17 17 17 17
23 23 22 22 22 22 21 21 20 20 19 19 19 19 18 18 18 18 18 18 18 18 18 17 17 17 17 17 17 17 17 17 17 17 17 16 17 17 17 17 17 17 17
23 23 23 22 22 22 21 21 21 20 20 19 19 18 18 18 18 18 18 18 18 17 17 17 17 17 17 17 17 17 17 17 17 17 17 16 16 16 17 17 17 17 17
23 24 23 23 22 22 21 21 21 20 20 19 19 18 18 18 18 18 18 18 18 18 17 17 17 17 17 17 17 17 17 17 17 17 17 16 16 16 16 16 16 16 16
24 24 24 24 23 22 21 21 20 20 20 19 19 19 18 18 18 18 18 17 18 18 17 17 17 17 17 17 17 17 17 17 17 17 16 16 16 16 16 16 16 16 16
24 24 24 24 23 22 21 21 21 20 20 19 19 19 18 18 18 18 18 18 18 18 18 18 17 17 17 17 17 17 17 17 16 16 16 16 16 16 16 16 16 16 16
24 24 24 23 23 22 22 21 21 20 20 19 19 19 19 18 18 18 18 18 18 18 18 18 17 17 17 17 17 17 17 17 16 16 16 16 16 16 16 16 15 15 15
24 24 24 24 23 23 22 21 21 20 20 20 19 19 19 19 19 18 18 18 18 18 18 18 17 17 17 17 17 17 17 17 16 16 16 16 16 16 16 16 15 15 15
24 25 24 24 24 23 22 22 21 21 20 20 19 19 19 19 19 19 18 18 18 18 18 18 18 17 17 17 17 17 17 16 16 16 16 16 16 16 15 15 15 15 15
24 24 24 24 23 23 22 22 21 21 20 20 19 19 19 19 18 18 18 18 18 18 18 18 17 17 17 17 17 17 16 16 16 16 16 16 16 15 15 15 15 15 15
23 24 24 23 23 23 22 21 21 21 20 20 19 19 19 19 18 18 18 18 18 18 18 17 17 17 17 17 17 16 16 16 16 16 16 15 15 15 15 15 15 15 15
23 23 23 23 23 22 22 21 21 21 20 20 19 19 19 18 18 18 18 18 18 18 17 17 17 17 17 17 16 16 16 16 16 16 16 15 15 15 15 15 15 14 14
22 23 23 23 22 22 22 22 21 21 20 20 19 19 19 18 18 18 18 17 17 17 17 17 17 17 17 16 16 16 16 16 16 16 15 15 15 15 15 14 14 14 14
22 22 22 22 22 22 22 22 21 21 20 20 19 19 19 19 18 18 18 17 17 17 17 17 17 17 16 16 16 16 15 15 15 15 15 15 15 14 14 14 14 14 14
21 22 22 22 22 22 22 22 21 21 20 20 19 19 19 19 18 18 17 17 17 17 17 17 17 16 16 16 16 16 15 15 15 15 15 15 14 14 14 14 14 14 13
22 22 22 22 22 22 22 22 21 21 20 20 19 19 19 18 18 18 17 17 17 17 17 16 16 16 16 16 15 15 15 15 15 15 15 14 14 14 14 14 13 13 13
22 22 22 22 22 22 22 21 21 21 20 20 19 19 19 18 18 18 17 17 17 17 17 16 16 16 15 15 15 15 15 15 15 14 14 14 14 14 14 13 13 13 13
22 22 22 22 22 22 22 21 21 20 20 20 19 19 19 18 18 18 17 17 17 17 16 16 16 15 15 15 15 14 14 14 14 14 14 14 13 13 13 13 13 13 12
22 22 22 22 22 22 21 21 20 20 20 19 19 19 19 18 18 18 17 17 17 16 16 16 15 15 15 14 14 14 14 14 14 13 13 13 13 13 13 13 13 12 12
21 22 22 22 22 21 21 20 20 20 19 19 19 18 18 18 18 17 17 17 16 16 15 15 15 14 14 14 14 14 13 13 13 13 13 13 13 12 12 12 12 12 12
21 21 21 21 21 21 20 20 19 19 19 19 18 18 18 17 17 17 16 16 16 15 15 15 14 14 14 14 14 13 13 13 13 13 12 12 12 12 12 12 12 11 11
20 20 21 20 20 20 20 20 19 19 19 18 18 18 17 17 17 16 16 16 15 15 14 14 14 14 14 13 13 13 13 13 12 12 12 12 12 11 11 11 11 11 10
19 19 20 20 20 19 19 19 19 18 18 18 17 17 17 16 16 16 16 15 15 15 14 14 14 13 13 13 13 12 12 12 12 12 11 11 11 11 11 10 10 10 10
18 18 19 19 18 19 19 18 18 18 18 17 17 17 16 16 16 15 15 15 15 14 14 14 13 13 13 12 12 12 12 12 11 11 11 11 11 10 10 10 10 10 10
17 18 18 18 18 18 18 18 17 17 17 17 16 16 16 15 15 15 14 14 14 14 14 13 13 13 13 12 12 12 12 12 11 11 11 10 10 10 10 10 10 10 9
17 17 17 17 16 16 17 17 17 17 16 16 16 15 15 15 15 14 14 14 13 13 13 13 13 12 12 12 12 11 11 11 11 11 10 10 10 10 10 10 10 9 9
Wind_Speed
7 6 8 8 8 8 8 8 8 7 6 4 3 3 2 2 1 2 4 5 5 5 5 3 2 3 3 3 3 2 3 2 2 1 1 2 1 1 1 2 2 3 4
5 6 8 8 9 9 9 8 8 8 7 5 3 3 2 2 2 1 2 4 5 5 5 4 3 3 2 3 3 3 2 2 3 2 1 1 2 1 1 0 1 2 2
10 9 9 10 9 10 11 10 8 8 7 6 3 3 2 1 0 1 1 2 4 4 4 4 3 3 3 3 3 4 4 3 2 2 3 2 2 1 1 0 1 1 1
10 9 10 10 11 11 9 8 8 7 7 7 6 5 4 3 3 2 2 2 3 3 4 4 4 3 2 3 3 3 3 3 3 2 2 2 3 2 1 1 1 1 2
11 11 12 11 10 9 9 8 8 7 7 7 7 6 4 3 2 1 1 2 2 3 3 4 4 3 3 3 3 2 3 3 3 3 2 2 1 2 2 2 2 1 1
10 10 9 8 8 8 8 8 8 7 7 7 7 7 6 5 4 3 3 2 1 1 2 3 3 3 3 3 3 3 3 3 3 3 3 3 2 3 3 3 3 2 2
9 9 9 10 10 9 9 8 9 8 7 8 7 7 7 7 6 5 4 3 2 2 2 2 3 2 3 3 3 2 3 3 3 4 4 4 3 2 3 3 2 2 1
8 10 10 11 11 11 10 10 9 8 7 8 7 6 7 5 5 5 4 4 3 3 3 3 3 3 3 2 2 2 2 2 3 4 3 3 3 3 3 3 3 2 2
9 9 9 9 10 10 10 10 10 8 7 7 6 6 6 6 5 5 4 3 3 3 3 3 3 2 2 2 2 2 2 1 2 2 2 2 2 3 3 3 3 3 3
6 6 6 7 8 8 8 8 8 8 7 7 7 6 6 6 5 4 4 4 3 2 3 2 2 1 1 1 1 1 1 2 2 2 2 2 2 2 2 3 2 3 3
6 6 6 6 6 6 7 7 7 6 6 6 6 6 5 5 5 4 4 4 3 3 3 3 2 2 1 1 1 0 1 2 2 2 2 2 2 2 2 2 2 2 3
4 5 6 6 6 5 5 6 7 7 6 6 5 5 5 5 5 4 4 4 3 3 3 3 3 2 1 1 1 1 1 2 2 2 2 2 1 1 2 2 2 2 3
4 4 6 7 7 6 6 6 6 6 6 5 5 5 5 5 5 4 4 4 4 3 3 3 3 2 2 1 1 1 1 1 1 2 2 2 2 2 1 2 2 2 2
4 5 5 6 6 7 7 7 6 6 6 6 6 6 5 5 5 4 4 4 4 3 3 2 2 2 1 1 1 1 1 0 0 0 1 1 2 2 2 2 2 2 2
4 5 6 5 5 6 6 6 6 6 6 6 6 6 5 5 5 5 4 4 3 3 3 3 2 2 1 1 1 1 1 1 0 0 0 0 1 2 2 2 3 3 3
5 5 5 5 6 6 6 5 6 6 7 7 6 5 6 6 5 5 5 4 4 3 3 3 2 1 0 0 2 2 2 1 1 0 0 0 0 1 2 2 3 4 4
5 6 6 6 6 6 6 6 6 6 8 8 7 6 6 6 5 5 5 4 4 3 3 2 2 1 0 0 1 2 2 2 1 1 0 0 1 1 1 2 2 3 3
5 6 6 5 4 4 5 5 6 7 7 7 7 7 7 6 6 6 5 4 3 3 3 2 2 1 1 0 2 3 2 2 1 1 1 1 1 1 2 3 3 2 1
6 6 6 5 5 5 4 5 6 7 7 7 7 7 8 7 6 6 5 4 4 3 2 2 2 1 1 1 2 3 2 2 1 1 1 1 1 2 3 4 3 3 2
4 4 4 5 6 5 5 5 5 6 7 7 7 7 7 8 7 6 5 4 4 3 3 2 1 1 1 1 1 3 2 2 1 1 2 3 3 3 4 4 3 3 1
2 3 5 5 6 6 7 6 5 6 6 6 6 6 6 7 6 5 4 5 4 4 3 2 1 1 0 0 1 3 2 2 2 1 1 1 3 4 4 4 3 2 2
1 1 4 4 4 6 7 7 7 6 5 6 6 6 6 6 6 6 5 5 5 5 3 2 1 0 0 1 1 3 3 3 3 2 1 1 3 4 4 3 3 4 4
0 1 3 4 4 6 8 8 7 6 6 7 7 6 6 5 5 6 6 5 5 4 3 3 2 1 0 0 1 2 2 3 3 2 2 2 3 3 3 3 4 4 3
1 1 2 3 3 4 5 5 6 8 8 7 7 6 6 5 4 3 4 5 4 4 4 4 3 2 1 1 1 1 1 2 2 2 2 3 4 3 3 3 2 2 1
1 0 2 2 2 2 3 3 5 7 7 7 6 5 5 6 5 4 3 4 4 5 5 5 4 4 3 3 3 3 2 3 3 3 2 2 2 1 1 1 1 1 1
1 1 1 2 1 1 2 3 4 6 7 6 5 5 4 4 4 4 3 3 2 2 3 4 4 3 3 3 4 4 3 3 5 4 2 1 1 1 1 1 1 1 1
Wind_Direction
213 184 182 178 170 171 177 182 177 169 158 153 162 169 200 216 219 224 224 217 211 205 193 200 189 176 186 197 183 173 160 166 149 114 27 360 343 276 253 226 218 230 236
199 187 181 179 179 181 184 183 182 175 173 171 164 166 167 195 206 217 223 224 216 203 197 191 192 184 187 185 182 175 170 184 169 149 135 330 341 356 310 224 211 227 222
204 195 187 189 184 186 188 188 186 180 177 165 141 121 94 59 77 219 233 237 216 202 196 194 187 182 183 197 196 187 181 194 197 178 164 174 223 285 330 310 238 229 228
202 197 191 191 192 193 185 180 180 178 175 165 168 169 175 193 213 208 213 231 207 194 191 195 191 184 187 207 213 197 192 180 200 205 208 200 180 192 267 308 284 253 251
200 198 198 195 192 185 180 179 175 180 176 176 181 181 185 194 192 177 191 222 214 203 202 202 197 193 195 209 213 202 198 193 197 199 195 203 209 207 210 254 274 286 269
198 195 190 179 181 176 176 175 178 186 181 182 183 187 189 187 182 191 198 213 218 218 215 205 200 199 200 210 216 209 205 206 202 206 200 193 198 204 204 229 252 265 272
191 187 179 180 182 179 178 178 182 190 187 187 192 194 194 191 195 201 202 201 204 216 227 209 203 205 210 209 203 203 211 208 210 217 222 218 220 203 198 204 232 253 270
192 191 188 186 185 183 179 181 189 192 188 192 199 196 193 195 205 206 200 201 205 213 213 201 199 198 207 207 198 212 224 219 223 228 223 224 227 207 200 196 196 236 252
190 192 189 187 184 184 184 185 187 190 192 195 194 197 195 197 202 199 194 198 203 206 191 180 174 184 203 205 197 218 228 211 234 234 227 227 231 213 209 200 191 196 229
185 184 181 183 184 185 181 178 183 192 195 193 196 202 197 195 195 192 195 197 198 189 165 159 160 165 176 187 180 215 221 198 233 226 218 232 234 209 202 199 200 199 207
187 173 163 165 168 169 171 178 182 187 191 194 194 191 189 187 184 191 199 194 186 174 168 172 161 154 149 151 149 203 220 223 244 228 216 238 224 205 199 185 185 189 186
177 165 155 150 152 163 173 181 185 188 189 187 184 182 175 173 178 188 191 179 175 170 165 160 150 155 146 133 149 205 233 231 237 232 213 230 199 192 191 182 191 200 194
148 148 150 156 168 176 180 180 181 184 176 172 176 174 171 174 180 179 172 162 160 155 149 145 149 152 147 145 174 183 215 218 226 217 202 206 177 187 189 184 190 194 186
150 152 161 168 174 182 182 181 181 173 167 170 173 175 178 177 169 161 156 158 157 151 145 138 140 140 140 155 186 174 164 152 145 174 183 193 191 200 194 188 191 176 165
166 177 178 175 177 184 180 176 177 168 166 167 174 180 172 160 152 154 156 154 150 149 140 127 118 116 133 180 180 173 167 158 137 70 186 162 165 172 179 185 187 174 168
195 196 187 182 185 187 180 174 175 172 162 167 174 168 158 154 157 158 156 148 142 134 127 127 127 112 113 123 151 151 151 147 154 232 292 21 182 152 142 143 161 167 169
200 193 198 200 199 190 179 177 176 166 164 166 165 161 160 161 163 161 156 156 154 147 139 138 140 157 275 93 150 154 150 144 157 166 140 86 65 114 122 123 121 127 143
213 204 202 201 198 186 172 164 160 163 165 165 164 164 162 165 163 159 162 163 156 156 159 162 167 163 274 157 154 150 148 125 115 117 136 136 72 97 122 118 105 95 93
223 213 198 189 185 176 165 155 158 159 162 170 173 172 170 167 165 170 174 167 159 162 171 170 170 178 258 226 164 152 142 126 98 78 85 103 93 82 116 120 113 87 53
226 200 178 163 166 169 155 153 161 164 174 177 177 172 168 167 173 176 173 159 154 162 158 145 142 168 240 235 158 152 149 138 111 60 57 65 76 88 107 120 121 107 70
262 178 161 168 176 164 158 165 173 189 184 164 160 163 165 166 167 164 156 149 148 144 141 142 128 140 193 192 137 142 156 162 141 111 64 51 79 91 95 103 111 131 118
333 147 152 170 167 159 164 176 193 195 166 154 156 163 164 162 157 155 150 146 149 149 154 157 145 26 24 56 113 133 155 156 142 145 140 107 103 101 94 91 85 94 99
334 166 156 165 166 170 173 184 198 174 161 156 158 160 152 149 150 155 154 151 155 161 171 177 187 215 294 16 106 129 136 133 133 124 110 104 101 98 89 83 93 102 102
317 177 155 165 180 183 182 189 174 163 158 160 158 157 150 141 138 145 154 159 170 175 180 189 198 203 192 224 199 159 145 134 126 112 98 96 90 87 80 79 80 91 113
352 97 167 172 200 185 159 157 156 153 153 154 149 149 150 148 147 145 154 172 188 190 184 194 193 188 206 223 191 175 179 175 168 132 98 84 83 84 68 66 68 83 89
39 89 108 118 140 157 146 151 152 150 148 148 147 151 155 155 151 144 118 68 118 150 177 178 171 187 193 170 165 172 171 162 151 136 140 166 184 196 212 224 228 216 218
Height
1528 1531 1534 1536 1539 1541 1543 1545 1547 1548 1550 1551 1553 1554 1555 1556 1556 1557 1558 1559 1559 1560 1561 1562 1562 1563 1564 1564 1565 1566 1566 1567 1567 1568 1568 1568 1568 1568 1569 1569 1569 1570 1570
1527 1529 1531 1534 1536 1539 1541 1543 1545 1547 1549 1550 1552 1553 1554 1554 1555 1556 1557 1558 1558 1559 1560 1561 1561 1562 1563 1563 1564 1564 1565 1565 1566 1566 1566 1566 1567 1566 1566 1567 1567 1568 1568
1523 1526 1528 1531 1534 1536 1539 1541 1543 1545 1547 1549 1550 1551 1552 1553 1554 1554 1555 1556 1557 1558 1558 1559 1560 1560 1561 1562 1562 1563 1563 1563 1563 1564 1565 1565 1564 1564 1564 1564 1565 1565 1565
1520 1523 1526 1528 1531 1534 1537 1539 1541 1543 1545 1547 1548 1549 1550 1551 1552 1553 1553 1555 1556 1556 1557 1557 1558 1559 1559 1560 1560 1561 1561 1561 1561 1562 1562 1563 1562 1563 1562 1562 1562 1563 1563
1515 1519 1522 1525 1528 1532 1534 1537 1539 1541 1543 1545 1546 1548 1549 1550 1551 1551 1552 1553 1554 1555 1555 1556 1556 1557 1557 1558 1558 1558 1559 1559 1559 1559 1559 1559 1560 1560 1560 1559 1559 1560 1560
1512 1515 1519 1523 1526 1529 1532 1535 1537 1538 1540 1542 1544 1545 1547 1548 1549 1549 1550 1551 1552 1553 1553 1554 1555 1555 1555 1555 1556 1556 1556 1556 1556 1556 1556 1556 1556 1556 1557 1556 1556 1556 1557
1508 1512 1515 1519 1522 1526 1529 1532 1534 1536 1538 1540 1542 1543 1545 1546 1547 1548 1548 1549 1550 1551 1552 1552 1553 1554 1554 1554 1554 1553 1553 1553 1553 1553 1553 1553 1553 1554 1554 1554 1554 1554 1554
1506 1508 1511 1515 1519 1523 1526 1529 1531 1533 1536 1538 1539 1541 1543 1544 1545 1546 1547 1548 1548 1549 1550 1551 1551 1551 1552 1552 1551 1551 1551 1551 1550 1550 1550 1550 1550 1550 1551 1551 1551 1551 1551
1503 1506 1509 1513 1517 1520 1523 1526 1528 1531 1533 1535 1537 1539 1540 1541 1543 1544 1545 1546 1547 1547 1548 1549 1549 1549 1549 1549 1549 1549 1548 1548 1547 1547 1546 1546 1546 1546 1547 1547 1548 1549 1548
1502 1504 1508 1511 1515 1518 1521 1524 1526 1528 1530 1532 1534 1536 1537 1539 1540 1541 1542 1543 1544 1545 1546 1546 1547 1547 1547 1547 1547 1546 1546 1545 1544 1543 1543 1542 1543 1543 1543 1544 1544 1545 1545
1501 1503 1506 1509 1513 1516 1519 1521 1523 1525 1527 1529 1531 1532 1534 1536 1538 1539 1540 1541 1542 1543 1544 1544 1544 1544 1544 1544 1544 1544 1543 1542 1541 1540 1540 1539 1540 1540 1540 1540 1540 1541 1541
1500 1503 1505 1507 1511 1514 1517 1519 1521 1523 1525 1527 1529 1530 1532 1534 1535 1536 1538 1539 1540 1541 1541 1542 1542 1542 1542 1542 1541 1541 1540 1540 1539 1538 1537 1537 1537 1537 1537 1537 1537 1537 1537
1499 1502 1504 1506 1509 1512 1515 1517 1519 1521 1523 1526 1527 1529 1530 1532 1533 1535 1536 1537 1538 1539 1539 1540 1540 1540 1540 1539 1539 1539 1538 1537 1536 1535 1535 1534 1534 1533 1533 1534 1534 1534 1534
1498 1500 1503 1505 1507 1510 1513 1515 1517 1519 1522 1524 1526 1527 1529 1531 1532 1534 1535 1535 1536 1537 1537 1538 1538 1538 1538 1537 1537 1536 1536 1535 1534 1533 1532 1532 1531 1531 1531 1531 1531 1531 1531
1497 1499 1501 1503 1506 1508 1511 1513 1515 1518 1520 1522 1524 1525 1527 1529 1531 1532 1533 1533 1534 1535 1535 1536 1536 1536 1536 1535 1535 1534 1534 1533 1532 1531 1530 1529 1529 1528 1528 1528 1528 1528 1528
1497 1498 1500 1502 1504 1506 1508 1511 1513 1515 1518 1520 1522 1524 1526 1527 1529 1530 1531 1532 1532 1533 1533 1533 1533 1533 1533 1533 1532 1532 1531 1531 1530 1529 1528 1527 1526 1526 1526 1525 1525 1525 1525
1495 1497 1499 1500 1502 1504 1506 1508 1511 1514 1516 1518 1520 1522 1524 1525 1527 1528 1529 1530 1530 1530 1531 1531 1531 1530 1530 1530 1530 1529 1529 1528 1527 1526 1526 1525 1524 1524 1523 1523 1523 1523 1523
1493 1495 1497 1499 1501 1502 1505 1507 1510 1512 1514 1516 1517 1520 1521 1523 1524 1525 1526 1527 1528 1528 1528 1528 1528 1527 1527 1527 1527 1526 1526 1525 1525 1524 1523 1523 1522 1522 1522 1521 1521 1521 1522
1490 1492 1494 1497 1499 1501 1503 1505 1507 1509 1511 1513 1514 1516 1518 1519 1521 1522 1523 1524 1525 1525 1526 1526 1525 1525 1525 1525 1524 1524 1523 1523 1522 1522 1522 1521 1521 1521 1520 1520 1520 1520 1520
1487 1489 1491 1493 1496 1498 1501 1503 1505 1506 1508 1509 1512 1514 1514 1515 1517 1518 1519 1521 1522 1523 1524 1524 1523 1523 1523 1522 1522 1522 1521 1521 1520 1520 1520 1520 1520 1520 1519 1519 1519 1519 1519
1485 1486 1488 1490 1493 1495 1498 1500 1502 1503 1505 1507 1510 1511 1512 1513 1514 1516 1517 1518 1519 1520 1521 1521 1521 1521 1520 1520 1520 1519 1519 1519 1519 1518 1518 1519 1518 1518 1518 1518 1518 1518 1518
1483 1484 1485 1488 1490 1492 1495 1496 1498 1500 1503 1504 1506 1508 1509 1510 1511 1513 1514 1515 1517 1518 1519 1519 1519 1519 1518 1517 1517 1517 1518 1517 1517 1517 1518 1518 1517 1517 1517 1517 1517 1518 1517
1481 1483 1484 1486 1487 1489 1491 1492 1494 1497 1499 1500 1502 1505 1506 1507 1509 1510 1512 1513 1514 1515 1516 1517 1517 1516 1516 1516 1516 1516 1516 1516 1516 1516 1517 1517 1517 1516 1516 1516 1516 1517 1516
1480 1481 1482 1483 1485 1486 1488 1491 1491 1494 1496 1497 1499 1502 1503 1505 1506 1508 1509 1510 1511 1512 1513 1514 1514 1514 1514 1515 1515 1515 1515 1515 1515 1515 1515 1516 1516 1516 1516 1515 1515 1515 1515
1479 1480 1481 1482 1484 1485 1486 1488 1489 1491 1493 1494 1496 1499 1501 1502 1504 1505 1507 1508 1509 1510 1511 1511 1512 1511 1512 1513 1513 1514 1514 1514 1514 1514 1514 1514 1514 1514 1514 1514 1514 1514 1514
1478 1479 1478 1479 1482 1484 1484 1485 1487 1489 1491 1492 1494 1497 1499 1500 1502 1503 1505 1506 1507 1508 1508 1509 1509 1509 1510 1511 1511 1512 1512 1512 1512 1512 1512 1512 1512 1512 1512 1512 1512 1512 1512